hrsa.gov alexa rank chart, hrsa.gov alexa rank daily changes

hrsa.gov alexa rank chart, hrsa.gov alexa rank daily changes

hrsa.gov
Actual rank:
50 972

RANK HISTORY

Date Rank Diff
2017/12/08 50 972 -85
2017/12/07 51 057 -1 108
2017/12/06 52 165 -1 738
2017/12/05 53 903 +52
2017/12/04 53 851 -332
2017/12/03 54 183 +222
2017/12/02 53 961 -1 007
2017/12/01 54 968 +162
2017/11/30 54 806 -1 289
2017/11/29 56 095 -542
2017/11/28 56 637 +835
2017/11/27 55 802 +1 389
2017/11/26 54 413 +880
2017/11/25 53 533 +1 219
2017/11/24 52 314 -507
2017/11/23 52 821 -562
2017/11/22 53 383 -134
2017/11/21 53 517 +275
2017/11/20 53 242 +1 427
2017/11/19 51 815 +731
2017/11/18 51 084 +185
2017/11/17 50 899 +41
2017/11/16 50 858 +104
2017/11/15 50 754 -192
2017/11/14 50 946 +584
2017/11/13 50 362 +1 218
2017/11/12 49 144 +776
2017/11/11 48 368 -385
2017/11/10 48 753 +218
2017/11/09 48 535 -283
2017/11/08 48 818 +559
2017/11/07 48 259 +756
2017/11/06 47 503 +400
2017/11/05 47 103 +591
2017/11/04 46 512 +588
2017/11/03 45 924 -211
2017/11/02 46 135 +96
2017/11/01 46 039 -201
2017/10/31 46 240 +553
2017/10/30 45 687 +421
2017/10/29 45 266 -407
2017/10/28 45 673 -287
2017/10/27 45 960 -23
2017/10/26 45 983 -201
2017/10/25 46 184 -242
2017/10/24 46 426 +1 176
2017/10/23 45 250 +1 166
2017/10/22 44 084 +375
2017/10/21 43 709 +716
2017/10/20 42 993 -252
2017/10/19 43 245 -551
2017/10/18 43 796 -546
2017/10/17 44 342 +79
2017/10/16 44 263 +495
2017/10/14 43 768 +62
2017/10/13 43 706 -326
2017/10/12 44 032 -877
2017/10/11 44 909 -250
2017/10/10 45 159 -187
2017/10/09 45 346

WIDGET FOR YOUR SITE

DOMAINS WITH THE NEAREST RANK

Domain Rank
smithsfoodanddrug.com 50 967
monitor.hr 50 968
portablefreeware.com 50 969
mainfun.ru 50 970
cubebrush.co 50 971
hrsa.gov 50 972
the-ans.jp 50 973
seeklogo.net 50 974
runyourpool.com 50 975
pronouncekiwi.com 50 976
yarnspirations.com 50 977

DOMAINS WITH THE NEAREST RANK BY TLD .gov

Domain Rank
eeoc.gov 49 344
nebraska.gov 49 400
mymedicare.gov 49 803
marylandhealthconnection.gov 50 160
la.gov 50 239
hrsa.gov 50 972
pacer.gov 51 118
houstontx.gov 51 403
choosemyplate.gov 51 549
nga.gov 52 129
grants.gov 52 437